Satellite: MET-3/5 Catalog number: 21655 Epoch time: 12060.81850878 Element set: 0350 Inclination: 082.5545 deg RA of node: 228.7328 deg Eccentricity: 0.0012539 Arg of perigee: 231.1640 deg Mean anomaly: 128.8414 deg Mean motion: 13.17036128 rev/day Decay rate: 5.1e-07 rev/day^2 Epoch rev: 98763 Checksum: 297
Satellite: MET-2/21 Catalog number: 22782 Epoch time: 12060.76108719 Element set: 0351 Inclination: 082.5473 deg RA of node: 118.5476 deg Eccentricity: 0.0024178 Arg of perigee: 096.1341 deg Mean anomaly: 264.2565 deg Mean motion: 13.83676224 rev/day Decay rate: -6.4e-07 rev/day^2 Epoch rev: 93417 Checksum: 308
Satellite: OKEAN-4 Catalog number: 23317 Epoch time: 12060.92454447 Element set: 0822 Inclination: 082.5417 deg RA of node: 132.4045 deg Eccentricity: 0.0021436 Arg of perigee: 353.9816 deg Mean anomaly: 006.1141 deg Mean motion: 14.83603925 rev/day Decay rate: 8.62e-06 rev/day^2 Epoch rev: 93875 Checksum: 289
Satellite: NOAA-14 Catalog number: 23455 Epoch time: 12060.91611436 Element set: 0819 Inclination: 098.8329 deg RA of node: 145.7633 deg Eccentricity: 0.0008611 Arg of perigee: 269.4711 deg Mean anomaly: 090.5472 deg Mean motion: 14.13879126 rev/day Decay rate: 6.1e-07 rev/day^2 Epoch rev: 88549 Checksum: 317
Satellite: NOAA-15 Catalog number: 25338 Epoch time: 12060.57866446 Element set: 0166 Inclination: 098.6834 deg RA of node: 048.5592 deg Eccentricity: 0.0011527 Arg of perigee: 066.5202 deg Mean anomaly: 293.7200 deg Mean motion: 14.25033997 rev/day Decay rate: 9.9e-07 rev/day^2 Epoch rev: 71738 Checksum: 324
Satellite: RESURS Catalog number: 25394 Epoch time: 12060.93420820 Element set: 0030 Inclination: 098.3133 deg RA of node: 054.9094 deg Eccentricity: 0.0001061 Arg of perigee: 155.8706 deg Mean anomaly: 204.2524 deg Mean motion: 14.24274925 rev/day Decay rate: 1.8e-07 rev/day^2 Epoch rev: 70899 Checksum: 272
Satellite: FENGYUN1 Catalog number: 25730 Epoch time: 12060.95472280 Element set: 0560 Inclination: 098.8389 deg RA of node: 021.8734 deg Eccentricity: 0.0020309 Arg of perigee: 317.8695 deg Mean anomaly: 042.0913 deg Mean motion: 14.09270341 rev/day Decay rate: 1.073e-05 rev/day^2 Epoch rev: 65936 Checksum: 296
Satellite: OKEAN-0 Catalog number: 25860 Epoch time: 12060.93002314 Element set: 0577 Inclination: 097.9221 deg RA of node: 025.8789 deg Eccentricity: 0.0000491 Arg of perigee: 084.7275 deg Mean anomaly: 275.3987 deg Mean motion: 14.74096517 rev/day Decay rate: 3.90e-06 rev/day^2 Epoch rev: 67862 Checksum: 323
Satellite: NOAA-16 Catalog number: 26536 Epoch time: 12060.60548578 Element set: 0650 Inclination: 099.1093 deg RA of node: 100.9829 deg Eccentricity: 0.0010948 Arg of perigee: 032.9809 deg Mean anomaly: 327.2045 deg Mean motion: 14.12707651 rev/day Decay rate: 1.0e-07 rev/day^2 Epoch rev: 58970 Checksum: 303
Satellite: NOAA-17 Catalog number: 27453 Epoch time: 12060.63598324 Element set: 0616 Inclination: 098.3486 deg RA of node: 093.1001 deg Eccentricity: 0.0012615 Arg of perigee: 113.1506 deg Mean anomaly: 247.1024 deg Mean motion: 14.24397733 rev/day Decay rate: 8.5e-07 rev/day^2 Epoch rev: 50330 Checksum: 273
Satellite: NOAA-18 Catalog number: 28654 Epoch time: 12060.69179693 Element set: 0093 Inclination: 099.0344 deg RA of node: 017.9530 deg Eccentricity: 0.0015141 Arg of perigee: 099.1053 deg Mean anomaly: 261.1811 deg Mean motion: 14.11610661 rev/day Decay rate: 9.1e-07 rev/day^2 Epoch rev: 34925 Checksum: 289
Satellite: NOAA-19 Catalog number: 33591 Epoch time: 12060.67531414 Element set: 0282 Inclination: 098.8554 deg RA of node: 001.8620 deg Eccentricity: 0.0013741 Arg of perigee: 331.3758 deg Mean anomaly: 028.6649 deg Mean motion: 14.11300382 rev/day Decay rate: 4.51e-06 rev/day^2 Epoch rev: 15770 Checksum: 283
/EX SB KEPS @ AMSAT $ORB12061.M Orbital Elements 12061.MISC
HR AMSAT ORBITAL ELEMENTS FOR MANNED AND MISCELLANEOUS SATELLITES FROM WA5QGD FORT WORTH,TX March 1, 2012 Send SUBSCRIBE KEPS/UNSUBSCRIBE KEPS to majordomo@amsat.org only BID: ORB12061.M TO ALL RADIO AMATEURS BT
Satellite: HUBBLE Catalog number: 20580 Epoch time: 12061.24282834 Element set: 953 Inclination: 028.4698 deg RA of node: 129.7927 deg Eccentricity: 0.0003125 Arg of perigee: 355.7915 deg Mean anomaly: 004.2744 deg Mean motion: 15.02224665 rev/day Decay rate: 1.756e-05 rev/day^2 Epoch rev: 99848 Checksum: 314
Satellite: ISS Catalog number: 25544 Epoch time: 12061.60134719 Element set: 112 Inclination: 051.6415 deg RA of node: 301.5814 deg Eccentricity: 0.0017720 Arg of perigee: 106.9991 deg Mean anomaly: 253.3471 deg Mean motion: 15.58676725 rev/day Decay rate: 1.9589e-04 rev/day^2 Epoch rev: 16534 Checksum: 296
Satellite: CO-58 Catalog number: 28895 Epoch time: 12060.63612906 Element set: 0112 Inclination: 097.9329 deg RA of node: 291.5897 deg Eccentricity: 0.0018609 Arg of perigee: 129.9068 deg Mean anomaly: 230.3773 deg Mean motion: 14.60498246 rev/day Decay rate: 6.63e-06 rev/day^2 Epoch rev: 33781 Checksum: 346
Satellite: FALCON Catalog number: 30776 Epoch time: 12060.88014392 Element set: 0302 Inclination: 035.4321 deg RA of node: 217.9662 deg Eccentricity: 0.0001145 Arg of perigee: 144.0388 deg Mean anomaly: 216.0406 deg Mean motion: 15.06708017 rev/day Decay rate: 3.373e-05 rev/day^2 Epoch rev: 27390 Checksum: 261
Satellite: MAST Catalog number: 31126 Epoch time: 12060.98241875 Element set: 0402 Inclination: 097.8792 deg RA of node: 078.3997 deg Eccentricity: 0.0095093 Arg of perigee: 087.8923 deg Mean anomaly: 273.3161 deg Mean motion: 14.54044469 rev/day Decay rate: 4.57e-06 rev/day^2 Epoch rev: 25854 Checksum: 333
Satellite: CAPE1 Catalog number: 31130 Epoch time: 12060.58192933 Element set: 0410 Inclination: 097.8870 deg RA of node: 074.4787 deg Eccentricity: 0.0103167 Arg of perigee: 101.5105 deg Mean anomaly: 259.7689 deg Mean motion: 14.52782108 rev/day Decay rate: 4.31e-06 rev/day^2 Epoch rev: 25800 Checksum: 286
Satellite: COMPASS Catalog number: 32787 Epoch time: 12060.83381684 Element set: 236 Inclination: 097.8134 deg RA of node: 124.5365 deg Eccentricity: 0.0016213 Arg of perigee: 058.4047 deg Mean anomaly: 301.8737 deg Mean motion: 14.83554968 rev/day Decay rate: 1.707e-05 rev/day^2 Epoch rev: 20774 Checksum: 312
Satellite: AAUSAT2 Catalog number: 32788 Epoch time: 12060.82564694 Element set: 228 Inclination: 097.8134 deg RA of node: 124.8526 deg Eccentricity: 0.0016024 Arg of perigee: 059.1379 deg Mean anomaly: 301.1396 deg Mean motion: 14.83839776 rev/day Decay rate: 2.066e-05 rev/day^2 Epoch rev: 20776 Checksum: 325
Satellite: DO-64 Catalog number: 32789 Epoch time: 12060.83607568 Element set: 242 Inclination: 097.8250 deg RA of node: 126.5048 deg Eccentricity: 0.0015762 Arg of perigee: 056.4007 deg Mean anomaly: 303.8702 deg Mean motion: 14.85019263 rev/day Decay rate: 3.163e-05 rev/day^2 Epoch rev: 20779 Checksum: 308
Satellite: CO-66 Catalog number: 32791 Epoch time: 12060.64871676 Element set: 0230 Inclination: 097.8137 deg RA of node: 124.1752 deg Eccentricity: 0.0016773 Arg of perigee: 057.7563 deg Mean anomaly: 302.5281 deg Mean motion: 14.83049885 rev/day Decay rate: 1.152e-05 rev/day^2 Epoch rev: 20765 Checksum: 316
Satellite: RS-30 Catalog number: 32953 Epoch time: 12061.27462518 Element set: 568 Inclination: 082.5071 deg RA of node: 002.2400 deg Eccentricity: 0.0018169 Arg of perigee: 180.0752 deg Mean anomaly: 180.0330 deg Mean motion: 12.43021231 rev/day Decay rate: 1.0e-07 rev/day^2 Epoch rev: 17115 Checksum: 229
Satellite: TACSAT-3 Catalog number: 35001 Epoch time: 12060.96391961 Element set: 0888 Inclination: 040.4484 deg RA of node: 024.6620 deg Eccentricity: 0.0009162 Arg of perigee: 219.7324 deg Mean anomaly: 140.2889 deg Mean motion: 15.76685328 rev/day Decay rate: 1.28461e-03 rev/day^2 Epoch rev: 15731 Checksum: 308
Satellite: PHARMSAT Catalog number: 35002 Epoch time: 12060.29661920 Element set: 0815 Inclination: 040.4665 deg RA of node: 034.4043 deg Eccentricity: 0.0005388 Arg of perigee: 340.6133 deg Mean anomaly: 019.4477 deg Mean motion: 15.66302815 rev/day Decay rate: 5.1521e-04 rev/day^2 Epoch rev: 15715 Checksum: 264
Satellite: METEOR-M Catalog number: 35865 Epoch time: 12060.91989556 Element set: 0190 Inclination: 098.6692 deg RA of node: 117.2075 deg Eccentricity: 0.0002910 Arg of perigee: 022.3588 deg Mean anomaly: 337.7716 deg Mean motion: 14.21856202 rev/day Decay rate: -2.5e-07 rev/day^2 Epoch rev: 12721 Checksum: 298
Satellite: RS-38 Catalog number: 35869 Epoch time: 12061.37881515 Element set: 199 Inclination: 098.6661 deg RA of node: 117.6711 deg Eccentricity: 0.0004894 Arg of perigee: 014.5570 deg Mean anomaly: 345.5749 deg Mean motion: 14.22056240 rev/day Decay rate: 2.1e-07 rev/day^2 Epoch rev: 12729 Checksum: 314
Satellite: JUGNU Catalog number: 37839 Epoch time: 12058.86066747 Element set: 0098 Inclination: 019.9636 deg RA of node: 306.6131 deg Eccentricity: 0.0019653 Arg of perigee: 088.0494 deg Mean anomaly: 272.2161 deg Mean motion: 14.12028722 rev/day Decay rate: 6.19e-06 rev/day^2 Epoch rev: 01963 Checksum: 312
Satellite: SRMSAT Catalog number: 37841 Epoch time: 12060.03897193 Element set: 0099 Inclination: 019.9756 deg RA of node: 302.1964 deg Eccentricity: 0.0011552 Arg of perigee: 073.3143 deg Mean anomaly: 286.8600 deg Mean motion: 14.10117785 rev/day Decay rate: 2.64e-06 rev/day^2 Epoch rev: 01977 Checksum: 297
Satellite: RAX-2 Catalog number: 37853 Epoch time: 12060.98411438 Element set: 0115 Inclination: 101.7140 deg RA of node: 051.9824 deg Eccentricity: 0.0250769 Arg of perigee: 299.1428 deg Mean anomaly: 058.4883 deg Mean motion: 14.79011983 rev/day Decay rate: 5.506e-05 rev/day^2 Epoch rev: 01840 Checksum: 306
